EW5742 Weather Reports


Display with metric or nautical units.
time (UTC)temp
F
wind
direction
speed
MPH
gust
MPH
rain 1hr
in
rain 24hr
in
rain mn
in
humidity
%
barometer
mb
20260505183016 74 155 7.0 15.0 0.00 0.00 0.00 62 1018.1
20260505181607 75 286 2.0 14.0 0.00 0.00 0.00 63 1018.2
20260505180103 75 120 2.0 11.0 0.00 0.00 0.00 65 1018.3
20260505174555 74 176 6.0 16.0 0.00 0.00 0.00 63 1018.2
20260505173052 75 198 6.0 14.0 0.00 0.00 0.00 62 1018.4
20260505171518 75 143 3.0 10.0 0.00 0.00 0.00 62 1018.2
20260505170018 76 117 5.0 14.0 0.00 0.00 0.00 60 1018.4
20260505164646 76 256 1.0 10.0 0.00 0.00 0.00 60 1018.5
20260505163044 75 141 7.0 15.0 0.00 0.00 0.00 60 1018.6
20260505161550 75 337 6.0 14.0 0.00 0.00 0.00 62 1018.7
20260505153104 76 179 7.0 13.0 0.00 0.00 0.00 59 1018.6
20260505151554 76 127 2.0 12.0 0.00 0.00 0.00 58 1018.7
20260505124535 71 98 0.0 4.0 0.00 0.00 0.00 69 1018.5
20260505123024 69 110 0.0 2.0 0.00 0.00 0.00 76 1018.5
20260505121606 67 137 0.0 2.0 0.00 0.00 0.00 82 1018.5
20260505120049 63 141 0.0 0.0 0.00 0.00 0.00 90 1018.5
20260505114508 59 141 0.0 0.0 0.00 0.00 0.00 93 1018.4
20260505113012 57 141 0.0 0.0 0.00 0.00 0.00 92 1018.3
20260505111602 55 141 0.0 0.0 0.00 0.00 0.00 93 1018.2
20260505101552 53 140 0.0 0.0 0.00 0.00 0.00 92 1017.4
20260505100045 54 140 0.0 0.0 0.00 0.00 0.00 92 1017.2
20260505094533 54 141 0.0 0.0 0.00 0.00 0.00 92 1017.1
20260505093023 54 141 0.0 0.0 0.00 0.00 0.00 91 1016.9
20260505091520 54 141 0.0 0.0 0.00 0.00 0.00 91 1017.0
20260505090018 55 141 0.0 0.0 0.00 0.00 0.00 90 1016.8
20260505084554 56 141 0.0 0.0 0.00 0.00 0.00 90 1016.8
20260505083052 56 141 0.0 0.0 0.00 0.00 0.00 90 1016.8
20260505081547 56 141 0.0 0.0 0.00 0.00 0.00 89 1016.7
20260505080047 57 141 0.0 0.0 0.00 0.00 0.00 89 1016.6
20260505074522 58 141 0.0 0.0 0.00 0.00 0.00 88 1016.5
20260505073019 58 141 0.0 0.0 0.00 0.00 0.00 87 1016.5
20260505071545 59 141 0.0 1.0 0.00 0.00 0.00 85 1016.5
20260505070046 59 141 0.0 0.0 0.00 0.00 0.00 84 1016.6
20260505063047 60 143 0.0 1.0 0.00 0.00 0.00 80 1016.5
20260505061544 60 188 0.0 2.0 0.00 0.00 0.00 80 1016.7
20260505060048 61 191 0.0 1.0 0.00 0.00 0.00 79 1016.7
20260505054547 61 203 0.0 2.0 0.00 0.00 0.00 79 1016.9
20260505054506 61 203 0.0 2.0 0.00 0.00 0.00 79 1016.8
20260505053030 61 155 0.0 2.0 0.00 0.00 0.00 79 1016.9
20260505051521 61 140 0.0 3.0 0.00 0.00 0.00 78 1016.9
20260505041550 61 157 0.0 4.0 0.00 0.00 0.00 80 1017.1
20260505040041 61 182 0.0 2.0 0.00 0.00 0.00 80 1017.2
20260505033058 61 119 0.0 0.0 0.00 0.00 0.00 81 1017.1
20260505031600 61 196 0.0 1.0 0.00 0.00 0.00 81 1017.2
20260505030057 61 191 0.0 3.0 0.00 0.00 0.00 81 1017.2
20260505024556 61 148 0.0 2.0 0.00 0.00 0.00 80 1017.2
20260505023007 61 127 0.0 2.0 0.00 0.00 0.00 80 1017.2
20260505021508 62 157 0.0 0.0 0.00 0.00 0.00 77 1017.3
20260505020059 63 134 0.0 2.0 0.00 0.00 0.00 76 1017.3
20260505014600 63 167 0.0 3.0 0.00 0.00 0.00 75 1017.2
20260505013054 64 149 0.0 4.0 0.00 0.00 0.00 73 1017.1
20260505011610 64 161 0.0 4.0 0.00 0.00 0.00 72 1016.9
20260505010051 64 131 0.0 4.0 0.00 0.00 0.00 71 1016.8
20260505004550 65 268 0.0 4.0 0.00 0.00 0.00 70 1016.5
20260505001513 65 141 2.0 8.0 0.00 0.00 0.00 68 1016.2
20260505000125 66 198 0.0 8.0 0.00 0.00 0.00 67 1016.2
20260504234508 66 209 2.0 12.0 0.00 0.00 0.00 66 1016.2
20260504233008 67 233 2.0 10.0 0.00 0.00 0.00 65 1016.1
20260504231507 67 176 2.0 9.0 0.00 0.00 0.00 63 1015.9
20260504230059 68 170 1.0 10.0 0.00 0.00 0.00 63 1015.9
20260504224511 68 118 3.0 12.0 0.00 0.00 0.00 61 1016.0
20260504223000 69 203 2.0 13.0 0.00 0.00 0.00 61 1016.0
20260504221520 70 123 4.0 13.0 0.00 0.00 0.00 58 1016.0
20260504220019 70 232 4.0 14.0 0.00 0.00 0.00 58 1016.1
20260504214508 70 219 3.0 19.0 0.00 0.00 0.00 58 1016.2
20260504213004 70 146 7.0 14.0 0.00 0.00 0.00 56 1016.1
20260504211520 71 153 5.0 15.0 0.00 0.00 0.00 54 1016.2
20260504210019 71 133 5.0 11.0 0.00 0.00 0.00 55 1016.2
20260504204553 71 172 6.0 15.0 0.00 0.00 0.00 55 1016.3
20260504203055 71 124 4.0 18.0 0.00 0.00 0.00 55 1016.2
20260504201515 71 185 6.0 18.0 0.00 0.00 0.00 56 1016.3
20260504200111 71 115 5.0 20.0 0.00 0.00 0.00 56 1016.5
20260504194537 72 147 7.0 13.0 0.00 0.00 0.00 55 1016.6
20260504193036 71 156 4.0 19.0 0.00 0.00 0.00 57 1016.8
20260504191547 71 162 7.0 16.0 0.00 0.00 0.00 57 1016.9
20260504190038 71 153 8.0 17.0 0.00 0.00 0.00 55 1017.0
20260504184525 71 113 5.0 16.0 0.00 0.00 0.00 56 1017.0